Tracking 28790 objects as of 18-Apr-2024
HD Live streaming from Space Station
objects crossing your sky now

KIKU 3 (ETS 4)

Track KIKU 3 (ETS 4) now!
10-day predictions
KIKU 3 (ETS 4) is classified as:


NORAD ID: 12295
Int'l Code: 1981-012A
Perigee: 318.7 km
Apogee: 13,133.1 km
Inclination: 28.4 °
Period: 248.6 minutes
Semi major axis: 13096 km
RCS: 1.8089 m2 (large)
Launch date: February 11, 1981
Source: Japan (JPN)
Launch site: TANEGASHIMA SPACE CENTER (TNSTA)
Your satellite tracking list
Your tracking list is empty




NASA's NSSDC Master Catalog

Two Line Element Set (TLE):
1 12295U 81012A   24106.72525704  .00010932  00000-0  19295-2 0  9999
2 12295  28.4273 230.8357 4892144 267.0627  38.3108  5.79230512594068
Source of the keplerian elements: AFSPC